Location: Casteau
(50.5142°N, 4.0161°E)
Time: 02:50:37
(UTC+00:00)

Transit 2A - Pass Details

Date: 29 July 2021
Orbit: 594 x 964 km, 66.7° (Epoch: 27 September)

Event Time Altitude Azimuth Distance (km) Brightness Sun altitude
Rises 13:52:51 0° 324° (NW) 3,139 9.1 49.9°
Reaches altitude 10° 13:55:14 10° 332° (NNW) 2,272 8.5 49.6°
Maximum altitude 14:00:11 41° 43° (NE) 1,148 7.0 49.0°
Drops below altitude 10° 14:05:38 10° 113° (ESE) 2,501 8.6 48.3°
Sets 14:08:22 0° 120° (ESE) 3,490 9.2 48.0°
